CAPE
0 0 0 0 0 0 0 0 0 0 0 0 0 0 0 0 0 0 0 0 0 0 0 0 0 0 0 0 0 0 0 0 364 817 869 562 440 254 150 256 152 108 67 73
0 0 0 0 0 0 0 0 0 0 0 0 0 0 0 0 0 0 0 0 0 0 0 0 0 0 0 0 0 0 0 0 0 533 1101 978 957 769 583 495 635 490 319 145
0 0 0 0 0 0 0 0 0 0 0 0 0 0 0 0 0 0 0 0 0 0 0 0 0 0 0 0 0 0 0 0 0 23 380 1304 1101 1023 1044 1047 990 851 726 355
0 0 0 0 0 0 0 0 0 0 0 0 0 0 0 0 0 0 0 0 0 0 0 0 0 0 0 0 0 0 0 0 0 0 0 618 419 751 1147 1497 1465 1367 1054 876
0 0 0 0 0 0 0 0 0 0 0 0 0 0 0 0 0 0 0 0 0 0 0 0 0 0 0 0 0 0 0 0 0 0 0 0 355 499 1088 1186 2249 2367 1752 1523
0 0 0 0 0 0 0 0 0 0 0 0 0 0 0 0 0 0 0 0 0 0 0 0 0 0 0 0 0 0 0 0 0 0 0 0 238 713 604 1314 1229 1218 1348 1751
0 0 0 0 0 0 0 0 0 0 0 0 0 0 0 0 0 0 0 0 0 0 0 0 0 0 0 0 0 0 0 0 0 0 0 0 14 620 1380 1670 1185 1484 1272 1537
0 0 0 0 0 0 0 0 0 0 0 0 0 0 0 0 0 0 0 0 0 0 0 0 0 0 0 0 0 0 0 0 0 0 0 0 0 0 274 1305 1207 1218 1429 1949
0 0 0 0 0 0 0 0 0 0 0 0 0 0 0 0 0 0 0 16 0 0 0 0 0 0 0 0 0 0 0 0 0 0 0 0 0 0 68 947 939 775 1636 1841
0 0 0 0 0 0 0 0 1 5 0 0 0 0 0 0 0 0 0 0 0 0 0 0 0 0 0 0 0 0 0 0 0 0 0 0 0 0 3 463 918 797 1492 1861
0 0 0 0 0 0 0 0 0 1 0 0 0 0 0 0 0 0 0 2 0 0 12 3 0 0 0 0 0 0 0 0 0 0 0 0 0 0 40 380 849 1103 1727 1880
0 13 6 0 0 0 0 1 3 12 3 15 19 1 0 0 0 0 0 0 0 44 27 7 4 0 0 0 0 0 0 0 2 2 2 0 0 0 108 476 821 1386 1697 1495
15 27 13 0 0 0 0 0 0 3 15 18 33 0 0 0 0 0 0 0 22 23 14 8 24 6 1 2 0 0 0 0 0 0 5 77 1 0 284 630 1054 1324 1299 1465
14 37 23 20 2 0 0 0 0 24 48 13 21 0 0 0 0 0 0 0 52 5 0 0 0 0 0 8 0 0 0 0 0 0 8 222 196 92 507 879 1179 1354 1456 1545
14 40 34 27 14 14 11 1 0 19 11 27 0 3 0 0 0 19 0 16 0 0 0 0 0 0 0 5 7 8 0 0 0 0 0 352 230 409 548 833 1199 1609 1714 1660
14 22 24 20 24 26 39 1 3 0 0 1 0 1 8 0 0 0 11 3 1 1 0 0 0 1 9 2 14 7 0 0 0 1 0 135 147 250 886 1248 1567 1725 1641 1796
25 49 37 11 7 19 16 0 0 0 0 0 8 0 5 0 0 0 22 0 3 4 0 0 14 10 5 0 31 2 2 0 1 3 0 130 216 580 1116 1374 1524 1699 1885 1986
24 27 41 21 20 23 0 0 0 3 0 0 8 3 0 0 0 2 0 0 8 0 0 2 5 0 0 1 1 1 0 6 6 1 10 316 490 1031 1499 1672 1599 1598 1433 1941
6 28 41 32 30 0 0 0 44 38 16 0 16 0 0 0 2 5 4 2 18 7 2 1 0 0 0 0 4 1 14 8 1 228 787 742 1160 1461 1282 1331 1269 1230 1438 1510
6 18 33 46 50 51 12 6 10 1 3 0 0 0 0 4 17 0 9 4 5 4 3 0 0 0 0 0 0 8 12 12 62 1002 927 1243 1337 1331 1428 1295 1240 1280 1550 1308
19 20 16 8 3 10 2 0 31 51 45 9 0 1 17 39 32 21 25 9 3 4 3 0 0 0 0 0 0 1 1 8 100 139 944 1530 1880 1719 1165 882 1188 1088 518 170
4 37 40 38 46 23 50 50 66 63 16 3 2 13 40 39 27 30 18 6 4 8 3 0 0 0 0 0 0 0 0 5 165 170 917 1179 1268 1072 911 999 872 279 176 2
39 61 39 53 19 79 28 9 2 3 13 3 25 12 14 13 20 34 17 7 7 18 13 9 1 0 0 0 0 0 0 1 106 585 709 816 823 708 720 722 839 426 228 285
7 3 13 7 0 1 1 0 1 8 52 46 61 45 31 36 24 23 26 9 6 8 6 4 2 0 0 0 0 0 0 18 56 115 433 440 356 348 286 381 409 300 280 137
6 9 6 9 5 8 1 4 46 42 40 78 64 31 18 16 17 28 14 13 9 4 7 10 6 5 0 0 0 0 0 10 100 8 192 112 109 106 1 3 87 218 171 56
9 14 20 10 8 7 4 5 84 107 75 49 48 20 7 23 14 4 13 18 14 7 10 3 9 8 0 0 0 0 0 5 135 289 107 97 3 4 2 1 1 1 1 0
CIN
-0 -0 -0 -0 -0 -0 -0 -0 -0 -0 -0 -0 -0 -0 -0 -0 -0 -0 -0 -0 -0 -0 -0 -0 -0 -0 -0 -0 -0 -0 -0 -0 -329 -176 -209 -364 -463 -557 -596 -595 -671 -677 -808 -718
-0 -0 -0 -0 -0 -0 -0 -0 -0 -0 -0 -0 -0 -0 -0 -0 -0 -0 -0 -0 -0 -0 -0 -0 -0 -0 -0 -0 -0 -0 -0 -0 -0 -215 -151 -251 -301 -405 -431 -475 -476 -537 -653 -690
-0 -0 -0 -0 -0 -0 -0 -0 -0 -0 -0 -0 -0 -0 -0 -0 -0 -0 -0 -0 -0 -0 -0 -0 -0 -0 -0 -0 -0 -0 -0 -0 -0 -467 -342 -167 -271 -353 -348 -376 -440 -523 -507 -717
-0 -0 -0 -0 -0 -0 -0 -0 -0 -0 -0 -0 -0 -0 -0 -0 -0 -0 -0 -0 -0 -0 -0 -0 -0 -0 -0 -0 -0 -0 -0 -0 -0 -0 -0 -316 -339 -285 -244 -258 -273 -303 -505 -490
-0 -0 -0 -0 -0 -0 -0 -0 -0 -0 -0 -0 -0 -0 -0 -0 -0 -0 -0 -0 -0 -0 -0 -0 -0 -0 -0 -0 -0 -0 -0 -0 -0 -0 -0 -0 -383 -327 -280 -256 -232 -225 -327 -398
-0 -0 -0 -0 -0 -0 -0 -0 -0 -0 -0 -0 -0 -0 -0 -0 -0 -0 -0 -0 -0 -0 -0 -0 -0 -0 -0 -0 -0 -0 -0 -0 -0 -0 -0 -0 -410 -325 -326 -317 -367 -425 -325 -287
-0 -0 -0 -0 -0 -0 -0 -0 -0 -0 -0 -0 -0 -0 -0 -0 -0 -0 -0 -0 -0 -0 -0 -0 -0 -0 -0 -0 -0 -0 -0 -0 -0 -0 -0 -0 -458 -346 -258 -297 -353 -368 -369 -302
-0 -0 -0 -0 -0 -0 -0 -0 -0 -0 -0 -0 -0 -0 -0 -0 -0 -0 -0 -0 -0 -0 -0 -0 -0 -0 -0 -0 -0 -0 -0 -0 -0 -0 -0 -0 -71 -8 -339 -291 -343 -371 -325 -276
-0 -0 -0 -0 -0 -0 -0 -0 -0 -0 -0 -0 -0 -0 -0 -0 -0 -0 -0 -63 -0 -0 -0 -0 -0 -0 -0 -0 -0 -0 -0 -0 -0 -0 -0 -0 -0 -0 -444 -341 -497 -495 -342 -313
-0 -0 -0 -0 -0 -0 -0 -0 -0 -8 -0 -0 -0 -0 -0 -0 -0 -0 -0 -0 -0 -0 -0 -0 -0 -0 -0 -0 -0 -0 -0 -0 -0 -0 -0 -0 -0 -0 -138 -402 -451 -483 -376 -326
-0 -0 -0 -0 -0 -0 -0 -0 -0 -0 -0 -0 -0 -0 -0 -0 -0 -0 -0 -84 -0 -0 -90 -121 -0 -0 -0 -0 -0 -0 -0 -0 -0 -0 -0 -0 -0 -0 -440 -351 -356 -391 -298 -259
-0 -9 -0 -0 -0 -0 -0 -0 -0 -0 -0 -0 -0 -0 -0 -0 -0 -0 -2 -0 -0 -74 -71 -113 -131 -0 -0 -0 -0 -0 -0 -0 -0 -0 -0 -0 -0 -0 -355 -318 -331 -319 -268 -290
-24 -0 -0 -0 -0 -0 -0 -0 -0 -1 -0 -0 -0 -0 -0 -0 -0 -0 -0 -0 -66 -79 -108 -126 -62 -73 -0 -0 -0 -0 -0 -0 -0 -0 -0 -266 -11 -0 -328 -331 -303 -288 -290 -272
-5 -0 -0 -0 -0 -0 -0 -0 -0 -0 -0 -0 -0 -0 -0 -0 -0 -43 -3 -11 -22 -75 -0 -0 -0 -0 -0 -0 -0 -0 -0 -0 -0 -0 -0 -251 -340 -469 -323 -334 -300 -263 -260 -223
-4 -0 -0 -0 -0 -0 -0 -0 -0 -0 -0 -0 -0 -0 -0 -0 -34 -48 -0 -42 -4 -0 -0 -0 -0 -0 -0 -0 -0 -0 -0 -0 -0 -0 -0 -234 -384 -346 -340 -334 -295 -232 -224 -203
-6 -0 -0 -0 -0 -0 -0 -0 -0 -0 -0 -0 -0 -0 -41 -0 -0 -66 -60 -32 -18 -32 -0 -0 -0 -2 -2 -0 -0 -0 -0 -0 -0 -0 -0 -188 -421 -395 -283 -272 -224 -216 -204 -184
-2 -0 -0 -0 -0 -0 -0 -0 -0 -0 -0 -4 -2 -0 -10 -0 -0 -0 -39 -0 -14 -25 -0 -0 -46 -41 -23 -0 -0 -0 -0 -0 -0 -0 -0 -255 -341 -248 -233 -231 -214 -208 -191 -177
-0 -0 -0 -0 -0 -0 -0 -0 -0 -40 -4 -0 -12 -21 -0 -0 -0 -23 -0 -0 -3 -0 -0 -0 -57 -2 -0 -0 -0 -0 -2 -0 -0 -0 -81 -184 -183 -166 -184 -199 -222 -234 -250 -145
-0 -0 -0 -0 -0 -0 -0 -2 -24 -22 -20 -0 -11 -1 -0 -0 -0 -0 -0 -0 -0 -0 -0 -0 -0 -0 -0 -0 -2 -1 -0 -0 -0 -39 -11 -85 -95 -158 -262 -252 -286 -278 -199 -140
-0 -0 -0 -0 -0 -0 -0 -5 -45 -0 -0 -0 -0 -0 -0 -0 -0 -0 -0 -0 -0 -0 -0 -0 -0 -0 -0 -0 -0 -0 -0 -0 -71 -0 -20 -61 -122 -183 -217 -239 -243 -207 -133 -158
-0 -0 -0 -0 -0 -0 -25 -0 -15 -0 -0 -22 -0 -0 -0 -0 -0 -0 -0 -0 -0 -0 -0 -0 -0 -0 -0 -0 -0 -0 -0 -0 -108 -162 -20 -6 -30 -71 -179 -246 -183 -191 -285 -367
-0 -0 -0 -0 -0 -0 -11 -6 -0 -0 -0 -0 -0 -0 -0 -0 -0 -0 -0 -0 -0 -0 -0 -0 -0 -0 -0 -0 -0 -0 -0 -0 -61 -151 -42 -43 -60 -116 -159 -169 -171 -301 -300 -35
-0 -0 -0 -1 -2 -4 -14 -1 -0 -2 -0 -2 -0 -0 -1 -0 -0 -0 -0 -0 -0 -0 -0 -0 -0 -0 -0 -0 -0 -0 -0 -0 -73 -21 -49 -64 -86 -119 -136 -162 -87 -146 -179 -113
-0 -7 -0 -0 -0 -0 -0 -0 -4 -4 -0 -0 -0 -0 -0 -0 -0 -0 -0 -0 -0 -0 -0 -0 -0 -0 -0 -0 -0 -0 -0 -42 -75 -103 -41 -89 -146 -151 -174 -121 -103 -130 -95 -139
-0 -0 -0 -0 -0 -0 -0 -0 -0 -0 -0 -0 -0 -0 -0 -0 -0 -0 -0 -0 -0 -0 -0 -0 -0 -0 -0 -0 -0 -0 -0 -36 -63 -156 -71 -181 -193 -81 -0 -0 -55 -60 -76 -167
-0 -0 -0 -0 -0 -0 -0 -0 -0 -0 -0 -0 -0 -0 -2 -0 -0 -0 -0 -0 -0 -0 -0 -0 -0 -0 -0 -0 -0 -0 -0 -4 -89 -12 -100 -104 -0 -0 -0 -0 -0 -0 -0 -0
Wind_Speed
2 5 6 4 4 3 3 4 6 5 7 8 12 18 17 17 16 17 14 10 9 7 7 3 4 6 7 8 9 5 6 5 3 7 6 9 10 10 10 10 14 12 8 8
3 8 6 5 3 4 4 5 7 7 6 11 14 20 18 17 15 17 16 14 9 5 3 3 4 6 7 10 10 9 5 3 3 6 9 6 5 8 10 9 10 11 10 8
4 1 5 4 3 5 5 7 6 9 8 12 12 13 5 8 11 10 12 9 5 6 8 4 7 9 9 11 12 12 11 8 6 10 8 9 7 5 6 10 10 13 15 15
5 0 5 5 4 6 8 5 6 8 8 9 6 10 10 14 6 5 4 8 9 4 3 7 8 9 11 13 13 14 14 12 9 8 7 10 10 11 10 9 11 11 14 11
3 3 6 8 10 9 6 1 6 8 12 11 13 8 4 3 6 1 6 7 9 6 6 7 10 12 13 13 15 15 15 15 14 11 9 9 11 10 11 10 10 11 9 14
13 1 5 7 1 8 3 4 8 4 4 8 4 8 4 4 8 5 9 9 6 7 6 7 9 10 12 13 12 14 16 16 15 13 11 11 13 12 12 10 10 9 10 12
5 6 2 4 6 4 3 4 6 4 5 4 4 10 10 10 11 15 16 13 9 5 7 9 11 13 14 17 18 15 15 18 16 15 13 13 14 15 15 13 10 10 11 11
7 9 6 5 4 3 4 5 5 6 5 7 9 11 3 6 10 13 13 8 10 10 11 13 11 12 17 18 18 19 19 18 16 16 16 13 14 12 11 12 10 9 10 11
5 6 1 6 1 4 5 7 2 8 9 9 8 11 13 14 8 4 5 3 8 10 15 13 15 14 14 15 17 18 20 19 18 18 14 14 14 14 13 14 10 10 11 9
1 7 5 4 1 5 9 8 5 3 5 7 6 17 13 14 11 5 8 12 13 18 17 11 10 14 16 14 15 18 20 19 19 19 17 15 16 15 15 14 12 14 11 10
4 5 3 3 7 8 6 8 4 3 4 5 9 6 3 8 13 11 13 10 19 18 16 13 12 14 15 18 20 14 18 21 19 18 18 18 18 17 16 15 14 14 13 13
4 4 9 13 11 7 8 10 10 7 7 7 11 20 13 15 12 7 13 19 18 15 14 13 15 16 18 18 17 17 18 20 19 18 19 19 19 17 16 16 15 14 15 15
6 5 7 7 5 4 6 11 10 9 4 15 12 14 4 8 19 21 21 16 15 14 16 14 13 16 18 20 16 18 20 20 19 16 19 20 19 18 17 16 16 16 16 16
4 6 12 14 10 1 6 9 12 14 10 15 18 30 26 25 22 19 18 17 13 15 13 13 13 17 18 18 15 16 20 20 20 16 18 21 19 20 17 16 16 16 16 17
5 13 16 20 22 21 24 26 24 22 23 19 22 24 28 23 23 19 17 13 13 16 13 13 15 17 19 18 18 19 19 21 20 17 18 21 19 18 17 17 16 16 16 16
6 11 12 15 13 16 19 25 25 26 27 25 27 27 25 21 15 14 12 11 14 16 17 15 16 19 21 18 19 21 22 23 21 21 18 22 19 19 18 17 17 16 16 16
5 6 3 12 8 11 14 25 23 22 19 17 18 18 14 16 15 14 14 12 16 19 19 16 18 17 18 18 16 22 23 24 23 22 21 22 21 20 19 18 19 17 15 15
16 13 7 10 10 11 8 3 5 7 11 14 16 18 14 13 15 11 14 16 17 17 17 17 16 15 17 16 16 19 24 27 23 24 30 21 22 20 19 16 16 15 14 17
20 15 6 5 9 13 15 8 2 6 12 7 11 9 16 19 17 16 14 17 19 18 19 17 17 17 16 14 13 20 21 23 31 17 14 19 20 18 18 18 18 16 16 14
9 10 4 4 6 4 2 2 3 2 13 6 9 16 20 19 17 15 16 20 20 18 17 18 18 18 17 15 14 18 18 23 15 8 13 17 17 18 19 18 16 15 14 14
3 4 10 9 7 7 5 3 4 4 6 12 19 20 21 19 17 24 21 22 20 16 18 18 18 17 18 16 19 18 19 19 14 12 9 12 15 15 16 16 14 15 14 14
2 4 2 4 6 6 3 2 6 13 19 17 23 21 19 22 25 22 23 23 21 21 18 17 18 17 17 18 17 18 18 19 10 11 4 11 13 11 12 17 14 15 16 15
3 3 4 5 6 13 17 16 15 16 18 22 17 17 18 22 25 23 22 22 21 20 18 17 16 17 17 16 14 16 17 18 7 7 6 9 13 11 11 15 15 14 13 13
4 3 5 8 2 14 21 19 17 19 18 18 21 20 21 25 27 28 23 22 20 19 20 20 20 18 17 16 14 11 15 14 2 4 6 10 12 13 14 10 10 12 11 12
7 8 7 12 16 15 15 15 21 23 19 22 20 24 27 29 27 26 23 23 19 18 19 19 19 15 17 18 14 12 14 11 4 1 3 8 10 12 11 9 8 11 11 11
1 3 3 7 19 18 20 24 25 24 20 22 25 23 21 21 18 17 19 18 17 18 17 16 16 15 17 16 14 12 12 13 6 5 4 7 11 9 8 10 10 18 11 13
Wind_Direction
49 215 214 194 214 260 233 237 266 276 291 305 293 292 296 285 269 263 262 261 272 259 255 294 4 347 350 333 339 354 312 350 184 214 228 231 234 225 225 225 222 225 219 227
233 243 224 210 251 218 213 257 280 283 271 298 292 291 283 275 267 259 253 238 239 210 256 282 324 339 337 327 324 325 320 2 300 286 239 232 222 220 223 232 224 206 184 176
236 125 155 229 240 220 241 255 284 293 314 284 297 281 236 230 277 250 242 236 270 282 303 323 336 339 343 339 328 322 315 291 240 234 254 240 242 233 214 219 208 194 196 191
254 135 205 211 243 220 275 216 259 276 296 307 337 287 273 280 296 222 310 315 301 293 299 316 329 334 344 331 321 317 315 308 292 286 264 247 245 242 233 218 226 213 207 189
217 217 243 253 267 190 261 215 267 272 276 293 256 257 270 211 251 347 296 285 291 287 315 329 340 335 325 322 316 314 311 308 309 303 283 268 250 249 246 240 227 218 216 198
257 224 245 250 214 195 136 256 269 225 247 244 239 245 186 219 202 241 308 296 301 309 329 331 329 325 322 318 311 309 308 300 301 295 290 266 254 246 249 224 221 205 208 206
221 223 214 209 207 155 167 281 296 250 205 271 162 280 256 216 233 279 295 295 313 306 316 321 323 325 327 318 310 302 294 293 293 290 287 275 259 252 241 238 226 203 201 199
254 245 203 173 242 256 217 245 257 277 265 291 286 255 232 211 271 286 287 280 296 312 329 321 320 322 325 324 315 306 301 292 290 279 284 275 263 256 251 241 230 224 216 206
202 242 250 221 206 218 149 217 339 264 262 270 244 261 267 267 286 305 299 271 300 314 323 315 320 321 322 324 321 316 306 296 287 283 284 275 264 250 246 239 219 219 221 198
224 274 235 271 268 206 236 144 197 190 258 265 255 276 266 288 298 325 317 325 337 326 318 300 297 315 321 321 312 327 314 295 287 280 272 266 258 246 239 235 218 214 205 189
175 237 218 244 212 233 189 208 193 249 235 272 297 261 227 277 292 304 314 322 323 319 312 296 291 305 309 320 306 307 310 300 291 282 270 260 254 244 235 229 221 208 200 194
194 229 263 275 269 261 249 245 221 233 198 233 278 276 272 274 294 305 305 316 317 314 309 290 288 305 308 314 306 308 308 299 291 291 275 259 253 241 228 223 216 205 200 193
177 208 281 276 168 149 210 200 207 230 253 242 263 268 133 238 293 295 302 303 304 307 304 302 296 305 308 309 308 306 305 297 294 291 276 268 248 235 221 215 208 201 194 183
151 243 244 257 282 273 250 219 220 247 257 265 250 279 287 287 292 295 300 303 296 300 299 305 311 312 308 303 295 295 302 295 293 290 280 266 241 225 213 206 198 193 185 177
250 253 252 258 265 265 266 267 266 255 253 254 271 274 280 294 302 299 294 282 297 303 292 298 310 314 314 300 293 295 304 298 298 294 288 271 236 216 204 196 189 186 177 178
197 260 253 260 262 258 260 262 258 256 257 260 262 266 273 284 299 291 275 273 299 305 290 286 305 305 309 309 298 303 307 298 300 290 281 276 231 211 195 183 182 172 173 168
212 221 232 262 278 280 266 254 255 255 247 245 252 271 305 305 308 300 288 281 301 308 300 290 304 300 306 310 303 315 305 300 297 282 283 257 213 197 184 173 172 164 160 157
240 244 241 270 280 247 254 305 255 256 259 240 262 275 301 317 312 285 275 286 303 305 298 293 298 298 304 307 310 309 297 288 285 278 261 205 194 183 167 160 158 149 154 162
224 227 234 237 220 285 295 286 245 210 278 276 279 315 322 318 306 277 278 298 304 298 299 297 296 302 300 295 283 278 284 282 291 237 177 180 171 161 150 155 152 151 152 153
195 216 209 218 253 263 285 102 142 189 276 111 340 318 318 316 299 296 309 304 301 297 300 297 299 303 300 302 301 286 284 286 360 109 143 151 153 152 146 147 144 146 142 133
172 168 218 243 262 270 283 252 200 243 347 324 327 315 303 296 291 300 295 300 298 296 298 298 302 303 309 313 318 318 326 326 345 357 109 123 134 135 138 138 133 131 125 117
258 286 196 228 244 262 58 312 290 318 306 312 308 302 294 299 295 296 295 296 303 302 300 297 302 309 310 319 325 320 320 321 340 337 59 121 120 130 139 129 126 123 120 120
293 315 299 242 271 313 312 309 312 307 295 290 290 287 292 285 288 288 291 294 296 299 297 290 294 301 300 310 318 313 309 316 338 325 113 121 121 116 120 125 131 122 127 133
277 292 260 311 280 298 303 300 297 291 290 294 299 296 293 290 288 289 292 292 295 295 294 295 299 294 292 298 301 289 296 285 330 21 96 120 116 119 115 117 131 128 133 139
284 308 283 273 284 300 272 287 291 294 292 294 297 299 295 292 285 282 291 294 295 296 292 290 284 281 290 297 292 297 300 298 184 233 94 124 120 110 101 76 102 133 137 138
286 315 285 287 299 288 286 292 296 303 301 300 302 294 291 291 296 295 285 284 283 278 280 265 268 278 288 284 288 294 303 291 228 219 166 126 108 97 109 111 83 39 70 87